Skip Page Navigation
NASA JPL Caltech
NASA Logo - Jet Propulsion Laboratory + View the NASA Portal
+ Center for Near-Earth Object Studies
JPL Home Earth Solar System Stars & Galaxies Technology
JPL Solar System Dynamics
BODIES ORBITS EPHEMERIDES TOOLS PHYSICAL DATA DISCOVERY FAQ SITE MAP
IMPORTANT: The SSD Announcement email list is now available. Major changes are coming in the near future, including possible hostname and/or URL changes. To be notified of such changes, subscribe to this email list.

Please visit this page for more details.


JPL Small-Body Database Browser
Search: [ help ]  
357483 (2004 HZ24)
Classification: Main-belt Asteroid          SPK-ID: 2357483
Ephemeris | Orbit Diagram | Orbital Elements | Mission Design | Physical Parameters | Discovery Circumstances | Close-Approach Data ]

[ show orbit diagram ]
Orbital Elements at Epoch 2458600.5 (2019-Apr-27.0) TDB
Reference: JPL 7 (heliocentric ecliptic J2000)
 Element Value Uncertainty (1-sigma)   Units 
e .291235891176318 5.7868e-08  
a 2.692245056254357 2.6847e-08 au
q 1.908166668031083 1.5752e-07 au
i 8.192154478055231 1.1094e-05 deg
node 189.2148126296019 4.5912e-05 deg
peri 67.92570107628293 5.1207e-05 deg
M 111.5175808239943 2.0122e-05 deg
tp 2458100.682856756930
(2017-Dec-13.18285676)
8.593e-05 TDB
period 1613.504975968687
4.42
2.4135e-05
6.608e-08
d
yr
n .2231167584617269 3.3374e-09 deg/d
Q 3.476323444477631 3.4666e-08 au
  Orbit Determination Parameters
   # obs. used (total)      159  
   data-arc span      5306 days (14.53 yr)  
   first obs. used      2004-03-27  
   last obs. used      2018-10-06  
   planetary ephem.      DE431  
   SB-pert. ephem.      SB431-N16  
   condition code      0  
   norm. resid. RMS      .63912  
   source      ORB  
   producer      Otto Matic  
   solution date      2019-Jul-13 18:25:53  

Additional Information
 Earth MOID = .911658 au 
 Jupiter MOID = 1.65612 au 
 T_jup = 3.295 
[ show covariance matrix ]

Ephemeris | Orbit Diagram | Orbital Elements | Mission Design | Physical Parameters | Discovery Circumstances | Close-Approach Data ]

Physical Parameter Table
Parameter Symbol Value Units Sigma Reference Notes
absolute magnitude H 16.9   n/a MPO455581  

357483 (2004 HZ24)          Discovered 2004-Apr-19 by LINEAR at Socorro
Reference: 20130327/Numbers.arcLast Updated: 2013-03-29

[ show close-approach data ]
Ephemeris | Orbit Diagram | Orbital Elements | Mission Design | Physical Parameters | Discovery Circumstances | Close-Approach Data ]
ABOUT SSD CREDITS/AWARDS PRIVACY/COPYRIGHT GLOSSARY LINKS
FirstGov 2019-Dec-15 19:24 UT
(server date/time)  
NASA Home Page
Site Manager:   Ryan S. Park
Webmaster  Alan B. Chamberlin